• Join FlightAware (Why Join?)
  • Login
  • US Flag 
09:14PM EDT


 

Airport Tracker/Info


-or-


 

Live Flight TrackerFlight Track Log ✈ ABX904 ✈ 18-Mar-2014 ✈ KBFI - CYVR

Flight Track Log - Related Links

Times and Time Zones

All times are in EDT time to prevent confusion due to time zone crossing. See the ABX904 flight status page for this flight to view local times or setup timezone preferences in your user account.

Time Position Orientation Groundspeed Altitude Reporting Facility
EDT Latitude Longitude Course Direction KTS MPH feet Rate Location/Type
11:22AM 47.5225 -122.2950 156° South 287 330 800  Level Seattle Center
11:23AM 47.5064 -122.2842 156° South 210 242 1,700 2,340 Climbing Seattle Center
11:24AM 47.4625 -122.2428 147° Southeast 180 207 3,900 2,100 Climbing Seattle Center
11:24AM 47.4547 -122.1672 99° East 248 285 5,400 2,040 Climbing Seattle Center
11:25AM 47.4544 -122.1325 91° East 281 323 6,000 2,820 Climbing Seattle Center
11:26AM 47.4636 -122.0542 80° East 283 326 8,300 3,120 Climbing Seattle Center
11:26AM 47.4828 -122.0347 34° Northeast 288 331 9,200 1,620 Climbing Seattle Center
11:27AM 47.5319 -122.0417 355° North 267 307 10,000 780 Climbing Seattle Center
11:27AM 47.5525 -122.0550 336° Northwest 262 302 10,000  Level Seattle Center
11:28AM 47.6000 -122.0828 338° Northwest 264 304 10,000  Level Seattle Center
11:28AM 47.6236 -122.0975 337° Northwest 288 331 10,000 60 Level Seattle Center
11:29AM 47.6817 -122.1322 338° Northwest 293 337 10,100 480 Climbing Seattle Center
11:29AM 47.6997 -122.1439 336° Northwest 302 348 10,500 1,740 Climbing Seattle Center
11:30AM 47.7583 -122.1794 338° Northwest 299 344 11,900 840 Climbing Seattle Center
11:31AM 47.8417 -122.2303 338° Northwest 370 426 12,000  Climbing Seattle Center
11:32AM 47.9622 -122.2919 341° North 385 443 12,000  Level Seattle Center
11:33AM 48.0669 -122.3208 350° North 383 441 12,000  Level Seattle Center
11:34AM 48.1708 -122.3506 349° North 383 441 12,000  Level Seattle Center
11:35AM 48.2753 -122.3806 349° North 383 441 12,000  Level Seattle Center
11:36AM 48.3800 -122.4097 350° North 385 443 12,000  Level Seattle Center
11:37AM 48.4833 -122.4422 348° North 379 436 12,000  Level Seattle Center
11:38AM 48.5864 -122.4700 350° North 378 435 12,000  Level Seattle Center
11:39AM 48.6850 -122.5006 348° North 371 427 12,000  Level Seattle Center
11:40AM 48.7456 -122.5678 324° Northwest 300 345 12,000  Level Seattle Center
11:41AM 48.8019 -122.6669 311° West 301 346 12,000  Level Seattle Center
11:42AM 48.8500 -122.7833 302° West 300 345 12,000 -240 Level Vancouver Center
11:43AM 48.9167 -122.8833 315° West 310 357 11,500 -780 Descending Vancouver Center
11:44AM 48.9667 -122.9833 307° West 300 345 10,500 -780 Descending Vancouver Center
11:45AM 49.0167 -123.0667 312° West 290 334 10,000 -720 Descending Vancouver Center
11:46AM 49.0500 -123.1667 297° West 240 276 9,100 -1,200 Descending Vancouver Center
11:47AM 49.0667 -123.2333 291° West 230 265 7,700 -1,500 Descending Vancouver Center
11:48AM 49.0833 -123.3333 284° West 230 265 6,100 -1,320 Descending Vancouver Center
11:49AM 49.1000 -123.4500 282° West 230 265 5,100 -1,080 Descending Vancouver Center
11:50AM 49.1500 -123.5167 319° Northwest 230 265 4,000 -960 Descending Vancouver Center
11:51AM 49.2000 -123.4667 33° Northeast 240 276 3,200 -720 Descending Vancouver Center
11:52AM 49.2000 -123.3833 90° East 220 253 2,600 -840 Descending Vancouver Center
11:53AM 49.2000 -123.3167 90° East 190 219 1,600 -900 Descending Vancouver Center
11:54AM 49.1833 -123.2667 117° Southeast 130 150 900 -720 Descending Vancouver Center
11:55AM 49.1833 -123.2167 90° East 120 138 200 -720 Descending Vancouver Center